DAL2476 KDCA-KDTW

Flight info

Callsign DAL2476
Flight time 1h 7m
Altitude 36000
Route HORTO4 BUFFR Q178 KOZAR BONZZ2
Aircraft A319/M-SDE3FGHIRWY/LB1

Departure

Time 2026-04-25 02:24
Airport Ronald Reagan Washington National Airport (KDCA)

Arrival

Time 2026-04-25 03:31
Airport Detroit Metropolitan Wayne County Airport (KDTW)
Time Latitude Longitude Altitude Speed Heading
2026-04-25 01:27 38.85235 -77.04061 24 ft 0 kts 261°
2026-04-25 02:16 38.85237 -77.04043 24 ft 4 kts 258°
2026-04-25 02:16 38.85242 -77.04016 26 ft 4 kts 263°
2026-04-25 02:16 38.85239 -77.03990 28 ft 4 kts 329°
2026-04-25 02:16 38.85216 -77.03983 27 ft 3 kts 355°
2026-04-25 02:17 38.85212 -77.03983 27 ft 0 kts 355°
2026-04-25 02:19 38.85213 -77.03983 27 ft 0 kts 355°
2026-04-25 02:20 38.85219 -77.03983 27 ft 3 kts 355°
2026-04-25 02:20 38.85279 -77.03989 24 ft 15 kts 355°
2026-04-25 02:20 38.85403 -77.04001 24 ft 21 kts 355°
2026-04-25 02:20 38.85536 -77.04028 24 ft 18 kts 343°
2026-04-25 02:21 38.85652 -77.04042 25 ft 11 kts 356°
2026-04-25 02:21 38.85689 -77.04035 25 ft 3 kts
2026-04-25 02:21 38.85709 -77.03990 26 ft 10 kts 57°
2026-04-25 02:21 38.85815 -77.03983 27 ft 20 kts 355°
2026-04-25 02:22 38.85946 -77.03978 25 ft 18 kts 17°
2026-04-25 02:22 38.86035 -77.03944 24 ft 11 kts 17°
2026-04-25 02:22 38.86104 -77.03899 23 ft 7 kts 62°
2026-04-25 02:22 38.86084 -77.03868 23 ft 5 kts 158°
2026-04-25 02:23 38.86049 -77.03865 24 ft 6 kts 176°
2026-04-25 02:23 38.85869 -77.03848 28 ft 63 kts 175°
2026-04-25 02:23 38.85189 -77.03780 24 ft 131 kts 175°
2026-04-25 02:23 38.84155 -77.03692 372 ft 151 kts 177°
2026-04-25 02:24 38.83120 -77.03639 1116 ft 148 kts 178°
2026-04-25 02:24 38.82097 -77.03616 1815 ft 148 kts 179°
2026-04-25 02:24 38.81002 -77.03594 2248 ft 168 kts 180°
2026-04-25 02:24 38.79752 -77.03571 2606 ft 191 kts 181°
2026-04-25 02:25 38.78334 -77.03545 2959 ft 217 kts 181°
2026-04-25 02:25 38.76742 -77.03540 3428 ft 241 kts 186°
2026-04-25 02:25 38.75119 -77.04265 3998 ft 255 kts 214°
2026-04-25 02:25 38.73837 -77.05847 4834 ft 260 kts 239°
2026-04-25 02:26 38.73254 -77.08020 5748 ft 262 kts 268°
2026-04-25 02:26 38.73579 -77.10307 6684 ft 265 kts 296°
2026-04-25 02:26 38.74724 -77.12113 7605 ft 270 kts 321°
2026-04-25 02:26 38.76249 -77.13528 8598 ft 271 kts 323°
2026-04-25 02:27 38.77794 -77.14937 9577 ft 274 kts 323°
2026-04-25 02:27 38.79364 -77.16367 10299 ft 285 kts 323°
2026-04-25 02:27 38.81045 -77.17911 10627 ft 309 kts 323°
2026-04-25 02:27 38.82832 -77.19560 11198 ft 321 kts 323°
2026-04-25 02:28 38.84653 -77.21249 11992 ft 326 kts 323°
2026-04-25 02:28 38.86504 -77.22964 12855 ft 329 kts 323°
2026-04-25 02:28 38.88376 -77.24696 13657 ft 333 kts 323°
2026-04-25 02:28 38.90267 -77.26449 14326 ft 338 kts 323°
2026-04-25 02:29 38.92186 -77.28233 15016 ft 342 kts 324°
2026-04-25 02:29 38.94102 -77.30016 15694 ft 346 kts 324°
2026-04-25 02:29 38.96067 -77.31840 16367 ft 350 kts 324°
2026-04-25 02:29 38.98057 -77.33684 17034 ft 355 kts 324°
2026-04-25 02:30 39.00070 -77.35551 17691 ft 359 kts 324°
2026-04-25 02:30 39.02131 -77.37468 18332 ft 363 kts 324°
2026-04-25 02:30 39.04156 -77.39354 18897 ft 366 kts 324°
2026-04-25 02:30 39.06225 -77.41284 19535 ft 368 kts 324°
2026-04-25 02:31 39.08306 -77.43225 20150 ft 371 kts 324°
2026-04-25 02:31 39.10405 -77.45179 20764 ft 373 kts 324°
2026-04-25 02:31 39.12511 -77.47147 21374 ft 375 kts 324°
2026-04-25 02:31 39.14628 -77.49128 22011 ft 376 kts 324°
2026-04-25 02:32 39.16747 -77.51116 22622 ft 378 kts 324°
2026-04-25 02:32 39.18881 -77.53117 23189 ft 380 kts 324°
2026-04-25 02:32 39.21030 -77.55129 23696 ft 383 kts 324°
2026-04-25 02:32 39.23193 -77.57154 24132 ft 385 kts 323°
2026-04-25 02:33 39.25368 -77.59197 24588 ft 387 kts 323°
2026-04-25 02:33 39.27553 -77.61249 24996 ft 390 kts 323°
2026-04-25 02:33 39.29755 -77.63316 25418 ft 392 kts 323°
2026-04-25 02:33 39.31969 -77.65396 25845 ft 395 kts 323°
2026-04-25 02:34 39.34194 -77.67490 26260 ft 397 kts 323°
2026-04-25 02:34 39.36428 -77.69594 26692 ft 399 kts 323°
2026-04-25 02:34 39.38680 -77.71714 27139 ft 401 kts 323°
2026-04-25 02:34 39.40912 -77.73814 27583 ft 403 kts 323°
2026-04-25 02:35 39.43179 -77.75950 28013 ft 404 kts 323°
2026-04-25 02:35 39.45457 -77.78104 28438 ft 406 kts 323°
2026-04-25 02:35 39.47743 -77.80274 28841 ft 409 kts 322°
2026-04-25 02:35 39.50041 -77.82458 29225 ft 411 kts 322°
2026-04-25 02:36 39.52209 -77.84864 29598 ft 412 kts 313°
2026-04-25 02:36 39.54000 -77.87766 29967 ft 414 kts 303°
2026-04-25 02:36 39.55358 -77.91069 30270 ft 417 kts 294°
2026-04-25 02:36 39.56440 -77.94566 30577 ft 419 kts 293°
2026-04-25 02:37 39.57522 -77.98091 30871 ft 421 kts 293°
2026-04-25 02:37 39.58607 -78.01631 31160 ft 423 kts 293°
2026-04-25 02:37 39.59693 -78.05175 31554 ft 422 kts 293°
2026-04-25 02:37 39.60774 -78.08713 32002 ft 421 kts 294°
2026-04-25 02:38 39.61847 -78.12232 32445 ft 419 kts 294°
2026-04-25 02:38 39.62915 -78.15740 32885 ft 418 kts 294°
2026-04-25 02:38 39.63984 -78.19245 33313 ft 416 kts 294°
2026-04-25 02:38 39.65048 -78.22740 33750 ft 415 kts 294°
2026-04-25 02:39 39.66105 -78.26222 34164 ft 414 kts 294°
2026-04-25 02:39 39.67158 -78.29694 34564 ft 412 kts 294°
2026-04-25 02:39 39.68203 -78.33146 34951 ft 410 kts 294°
2026-04-25 02:39 39.69231 -78.36544 35328 ft 409 kts 294°
2026-04-25 02:40 39.70283 -78.40025 35678 ft 408 kts 294°
2026-04-25 02:40 39.71305 -78.43410 35839 ft 408 kts 294°
2026-04-25 02:40 39.72339 -78.46838 35864 ft 407 kts 294°
2026-04-25 02:41 39.74397 -78.53675 35870 ft 406 kts 294°
2026-04-25 02:41 39.76449 -78.60517 35865 ft 406 kts 294°
2026-04-25 02:42 39.78492 -78.67350 35873 ft 406 kts 294°
2026-04-25 02:42 39.80532 -78.74204 35870 ft 407 kts 294°
2026-04-25 02:43 39.82583 -78.81073 35902 ft 407 kts 294°
2026-04-25 02:43 39.84627 -78.87946 35894 ft 407 kts 294°
2026-04-25 02:44 39.86668 -78.94829 35885 ft 407 kts 294°
2026-04-25 02:44 39.88685 -79.01676 35878 ft 407 kts 293°
2026-04-25 02:45 39.90712 -79.08554 35864 ft 407 kts 293°
2026-04-25 02:45 39.92740 -79.15449 35867 ft 407 kts 293°
2026-04-25 02:46 39.94759 -79.22353 35871 ft 407 kts 293°
2026-04-25 02:46 39.96777 -79.29257 35869 ft 407 kts 293°
2026-04-25 02:47 39.98790 -79.36162 35881 ft 407 kts 293°
2026-04-25 02:47 40.01055 -79.42842 35879 ft 404 kts 303°
2026-04-25 02:48 40.04182 -79.48924 35883 ft 404 kts 304°
2026-04-25 02:48 40.07306 -79.55011 35884 ft 404 kts 304°
2026-04-25 02:49 40.10421 -79.61108 35862 ft 403 kts 304°
2026-04-25 02:49 40.13544 -79.67212 35859 ft 403 kts 304°
2026-04-25 02:50 40.16661 -79.73314 35845 ft 403 kts 304°
2026-04-25 02:50 40.19768 -79.79419 35849 ft 403 kts 304°
2026-04-25 02:51 40.22879 -79.85538 35835 ft 404 kts 303°
2026-04-25 02:51 40.25992 -79.91672 35839 ft 405 kts 303°
2026-04-25 02:52 40.29079 -79.97769 35840 ft 405 kts 303°
2026-04-25 02:52 40.32194 -80.03929 35842 ft 406 kts 303°
2026-04-25 02:53 40.35309 -80.10100 35839 ft 406 kts 303°
2026-04-25 02:53 40.38426 -80.16283 35842 ft 406 kts 303°
2026-04-25 02:54 40.41541 -80.22475 35840 ft 406 kts 303°
2026-04-25 02:54 40.44628 -80.28641 35843 ft 407 kts 303°
2026-04-25 02:55 40.47740 -80.34864 35847 ft 407 kts 303°
2026-04-25 02:55 40.50852 -80.41088 35851 ft 408 kts 303°
2026-04-25 02:56 40.53966 -80.47324 35857 ft 408 kts 303°
2026-04-25 02:56 40.57067 -80.53570 35867 ft 407 kts 302°
2026-04-25 02:57 40.60059 -80.59890 35859 ft 407 kts 296°
2026-04-25 02:57 40.62629 -80.66477 35843 ft 407 kts 297°
2026-04-25 02:58 40.65216 -80.73112 35842 ft 407 kts 297°
2026-04-25 02:58 40.67794 -80.79766 35843 ft 407 kts 296°
2026-04-25 02:59 40.70370 -80.86418 35843 ft 407 kts 296°
2026-04-25 02:59 40.72929 -80.93048 35838 ft 408 kts 296°
2026-04-25 03:00 40.75505 -80.99711 35841 ft 408 kts 296°
2026-04-25 03:00 40.78083 -81.06390 35840 ft 408 kts 296°
2026-04-25 03:01 40.80647 -81.13071 35864 ft 408 kts 296°
2026-04-25 03:01 40.83199 -81.19747 35868 ft 407 kts 296°
2026-04-25 03:02 40.85745 -81.26425 35870 ft 407 kts 296°
2026-04-25 03:02 40.88277 -81.33058 35867 ft 407 kts 295°
2026-04-25 03:03 40.90825 -81.39740 35865 ft 407 kts 295°
2026-04-25 03:03 40.93363 -81.46419 35866 ft 407 kts 295°
2026-04-25 03:04 40.95469 -81.52000 35870 ft 407 kts 295°
2026-04-25 03:04 40.98004 -81.58709 35853 ft 407 kts 295°
2026-04-25 03:05 41.01792 -81.68736 35855 ft 407 kts 294°
2026-04-25 03:05 41.03067 -81.72121 35599 ft 405 kts 294°
2026-04-25 03:05 41.04307 -81.75422 35356 ft 405 kts 294°
2026-04-25 03:06 41.05571 -81.78798 35126 ft 411 kts 294°
2026-04-25 03:06 41.06833 -81.82174 34877 ft 407 kts 294°
2026-04-25 03:06 41.08087 -81.85530 34639 ft 406 kts 294°
2026-04-25 03:06 41.09341 -81.88883 34380 ft 406 kts 294°
2026-04-25 03:07 41.10601 -81.92248 33578 ft 409 kts 294°
2026-04-25 03:07 41.11869 -81.95648 32573 ft 414 kts 294°
2026-04-25 03:07 41.13152 -81.99092 31576 ft 417 kts 294°
2026-04-25 03:07 41.14439 -82.02544 30627 ft 416 kts 294°
2026-04-25 03:08 41.15710 -82.05954 30111 ft 409 kts 294°
2026-04-25 03:08 41.16949 -82.09292 29483 ft 405 kts 294°
2026-04-25 03:08 41.18186 -82.12636 28904 ft 403 kts 294°
2026-04-25 03:08 41.19568 -82.15861 28321 ft 400 kts 301°
2026-04-25 03:09 41.21132 -82.18900 27712 ft 397 kts 302°
2026-04-25 03:09 41.22691 -82.21903 27100 ft 394 kts 302°
2026-04-25 03:09 41.24241 -82.24893 26498 ft 391 kts 302°
2026-04-25 03:09 41.25774 -82.27860 25914 ft 388 kts 302°
2026-04-25 03:10 41.27295 -82.30813 25352 ft 386 kts 302°
2026-04-25 03:10 41.28803 -82.33751 24811 ft 383 kts 302°
2026-04-25 03:10 41.30283 -82.36642 24292 ft 381 kts 302°
2026-04-25 03:10 41.31768 -82.39552 23798 ft 379 kts 302°
2026-04-25 03:11 41.33253 -82.42439 23296 ft 378 kts 303°
2026-04-25 03:11 41.35085 -82.44955 22982 ft 383 kts 320°
2026-04-25 03:11 41.37298 -82.46963 22710 ft 385 kts 323°
2026-04-25 03:11 41.39536 -82.48924 22468 ft 385 kts 323°
2026-04-25 03:12 41.41782 -82.50870 22186 ft 385 kts 324°
2026-04-25 03:12 41.44028 -82.52809 21924 ft 384 kts 324°
2026-04-25 03:12 41.46271 -82.54747 21668 ft 383 kts 324°
2026-04-25 03:12 41.48520 -82.56658 21407 ft 384 kts 327°
2026-04-25 03:13 41.51028 -82.57884 21075 ft 388 kts 347°
2026-04-25 03:13 41.53729 -82.57998 20594 ft 390 kts
2026-04-25 03:13 41.56437 -82.57713 20050 ft 390 kts
2026-04-25 03:13 41.59136 -82.57410 19531 ft 388 kts
2026-04-25 03:14 41.61792 -82.57118 19038 ft 387 kts
2026-04-25 03:14 41.64466 -82.56837 18547 ft 385 kts
2026-04-25 03:14 41.67103 -82.57085 18063 ft 378 kts 345°
2026-04-25 03:14 41.69649 -82.57944 17503 ft 376 kts 342°
2026-04-25 03:15 41.72164 -82.58842 16988 ft 373 kts 342°
2026-04-25 03:15 41.74665 -82.59739 16500 ft 371 kts 342°
2026-04-25 03:15 41.77146 -82.60628 16036 ft 367 kts 342°
2026-04-25 03:15 41.79607 -82.61503 15599 ft 364 kts 342°
2026-04-25 03:16 41.82046 -82.62372 15139 ft 362 kts 342°
2026-04-25 03:16 41.84474 -82.63239 14684 ft 360 kts 342°
2026-04-25 03:16 41.86894 -82.64104 14227 ft 358 kts 342°
2026-04-25 03:16 41.89291 -82.64963 13778 ft 356 kts 342°
2026-04-25 03:17 41.91647 -82.65809 13292 ft 354 kts 342°
2026-04-25 03:17 41.94018 -82.66659 12804 ft 351 kts 342°
2026-04-25 03:17 41.96373 -82.67500 12315 ft 349 kts 342°
2026-04-25 03:17 41.98709 -82.68319 11873 ft 345 kts 342°
2026-04-25 03:18 42.01032 -82.69117 11411 ft 343 kts 342°
2026-04-25 03:18 42.03334 -82.69902 10934 ft 340 kts 342°
2026-04-25 03:18 42.05621 -82.70679 10568 ft 335 kts 342°
2026-04-25 03:18 42.07835 -82.71424 10449 ft 322 kts 342°
2026-04-25 03:19 42.09973 -82.72134 10328 ft 310 kts 342°
2026-04-25 03:19 42.12042 -82.72817 10086 ft 303 kts 342°
2026-04-25 03:19 42.14056 -82.73480 9769 ft 301 kts 342°
2026-04-25 03:19 42.16086 -82.74146 9395 ft 299 kts 342°
2026-04-25 03:20 42.18103 -82.74815 9023 ft 297 kts 340°
2026-04-25 03:20 42.20016 -82.75769 8653 ft 291 kts 333°
2026-04-25 03:20 42.21888 -82.76839 8288 ft 289 kts 332°
2026-04-25 03:20 42.23727 -82.77901 7975 ft 286 kts 332°
2026-04-25 03:21 42.25551 -82.78961 7637 ft 283 kts 332°
2026-04-25 03:21 42.27347 -82.80018 7301 ft 280 kts 332°
2026-04-25 03:21 42.29124 -82.81073 6953 ft 278 kts 332°
2026-04-25 03:21 42.30864 -82.82111 6606 ft 276 kts 332°
2026-04-25 03:22 42.32496 -82.83403 6257 ft 268 kts 313°
2026-04-25 03:22 42.33669 -82.85321 5883 ft 264 kts 303°
2026-04-25 03:22 42.34730 -82.87335 5495 ft 262 kts 302°
2026-04-25 03:22 42.35768 -82.89352 5093 ft 260 kts 302°
2026-04-25 03:23 42.36788 -82.91364 4665 ft 259 kts 302°
2026-04-25 03:23 42.37789 -82.93384 4241 ft 257 kts 300°
2026-04-25 03:23 42.38353 -82.95614 4001 ft 245 kts 276°
2026-04-25 03:23 42.38473 -82.97826 4002 ft 227 kts 272°
2026-04-25 03:24 42.38545 -82.99887 4007 ft 214 kts 272°
2026-04-25 03:24 42.38605 -83.01886 4007 ft 213 kts 272°
2026-04-25 03:24 42.38666 -83.03892 4008 ft 213 kts 272°
2026-04-25 03:24 42.38725 -83.05895 4007 ft 213 kts 272°
2026-04-25 03:25 42.38782 -83.07896 4006 ft 213 kts 272°
2026-04-25 03:25 42.38845 -83.09905 4004 ft 214 kts 272°
2026-04-25 03:25 42.38907 -83.11908 4007 ft 212 kts 272°
2026-04-25 03:25 42.38963 -83.13902 4013 ft 213 kts 272°
2026-04-25 03:26 42.39023 -83.15905 4012 ft 213 kts 272°
2026-04-25 03:26 42.39060 -83.17904 4004 ft 213 kts 267°
2026-04-25 03:26 42.38695 -83.19848 4005 ft 215 kts 246°
2026-04-25 03:26 42.37816 -83.21497 4002 ft 219 kts 225°
2026-04-25 03:27 42.36545 -83.22648 3844 ft 220 kts 212°
2026-04-25 03:27 42.35223 -83.23615 3585 ft 217 kts 211°
2026-04-25 03:27 42.33897 -83.24589 3311 ft 216 kts 211°
2026-04-25 03:27 42.32581 -83.25563 3032 ft 214 kts 211°
2026-04-25 03:28 42.31308 -83.26504 2759 ft 203 kts 212°
2026-04-25 03:28 42.30103 -83.27394 2495 ft 192 kts 212°
2026-04-25 03:28 42.28969 -83.28233 2240 ft 180 kts 212°
2026-04-25 03:28 42.27929 -83.29000 2017 ft 159 kts 213°
2026-04-25 03:29 42.27013 -83.29675 1809 ft 142 kts 214°
2026-04-25 03:29 42.26173 -83.30297 1634 ft 135 kts 213°
2026-04-25 03:29 42.25360 -83.30899 1448 ft 132 kts 212°
2026-04-25 03:29 42.24557 -83.31493 1267 ft 131 kts 210°
2026-04-25 03:30 42.23756 -83.32085 1092 ft 131 kts 208°
2026-04-25 03:30 42.22953 -83.32676 905 ft 131 kts 208°
2026-04-25 03:30 42.22152 -83.33270 740 ft 132 kts 207°
2026-04-25 03:30 42.21372 -83.33845 647 ft 119 kts 208°
2026-04-25 03:31 42.20798 -83.34269 645 ft 66 kts 208°
2026-04-25 03:31 42.20431 -83.34542 648 ft 55 kts 208°
2026-04-25 03:31 42.20211 -83.34705 647 ft 14 kts 209°
2026-04-25 03:31 42.20186 -83.34814 647 ft 12 kts 269°
2026-04-25 03:32 42.20183 -83.34925 647 ft 13 kts 267°
2026-04-25 03:32 42.20180 -83.35051 647 ft 13 kts 269°
2026-04-25 03:32 42.20178 -83.35171 648 ft 13 kts 268°
2026-04-25 03:32 42.20174 -83.35314 648 ft 17 kts 268°
2026-04-25 03:33 42.20171 -83.35476 648 ft 17 kts 269°
2026-04-25 03:33 42.20169 -83.35645 648 ft 19 kts 269°
2026-04-25 03:33 42.20166 -83.35820 648 ft 18 kts 268°
2026-04-25 03:33 42.20163 -83.35985 648 ft 17 kts 268°
2026-04-25 03:34 42.20161 -83.36099 648 ft 5 kts 270°
2026-04-25 03:34 42.20188 -83.36126 648 ft 7 kts 356°
2026-04-25 03:34 42.20247 -83.36091 648 ft 11 kts 27°
2026-04-25 03:34 42.20307 -83.36050 649 ft 5 kts 26°
2026-04-25 03:35 42.20328 -83.36070 648 ft 3 kts 297°
2026-04-25 03:35 42.20337 -83.36092 648 ft 2 kts 298°
2026-04-25 03:35 42.20342 -83.36106 650 ft 1 kts 300°
2026-04-25 03:35 42.20343 -83.36108 650 ft 0 kts 300°